Regional Weather Roundup
Issued by NWS

Home | Current Version | Previous Version | Text Only | Print | Product List | Glossary On
Versions: 1 2 3 4 5 6 7 8 9 10 11 12 13 14 15 16 17 18 19 20 21 22 23 24 25 26 27
000
ASUS44 KJAN 200610
RWRMS

MISSISSIPPI HOURLY WEATHER ROUNDUP
NATIONAL WEATHER SERVICE JACKSON MS
100 AM CDT FRI APR 20 2018

NOTE: "FAIR: INDICATES FEW OR NO CLOUDS BELOW 12,000 FEET WITH NO
SIGNIFICANT WEATHER AND/OR OBSTRUCTIONS TO VISIBILITY.

MSZ001>002-007>008-010>013-018>021-025>028-034>036-200700-
NORTHWEST MISSISSIPPI

CITY           SKY/WX    TMP DP  RH WIND       PRES   REMARKS
BATESVILLE       N/A    N/A N/A N/A MISG        N/A
CLARKSDALE     CLEAR     46  36  66 N9        30.35R
CLEVELAND      FAIR      46  35  65 NE9       30.34R
GREENWOOD      FAIR      44  36  73 N3        30.31S
6HR MIN TEMP:  44; 6HR MAX TEMP:  57;

GREENVILLE     FAIR      46  32  58 N8        30.33R
6HR MIN TEMP:  46; 6HR MAX TEMP:  55;

OXFORD         FAIR      41  32  70 NE7       30.35R
TUNICA           N/A     45  34  65 NE12      30.37R
$$

MSZ003>006-009-014>017-022>024-029>033-037>039-200700-
NORTHEAST MISSISSIPPI

CITY           SKY/WX    TMP DP  RH WIND       PRES   REMARKS
ABERDEEN         N/A     45  39  81 N8        30.31S
COLUMBUS AFB   FAIR      46  37  69 N8        30.28S
6HR MIN TEMP:  46; 6HR MAX TEMP:  56;

CORINTH        FAIR      43  34  70 N5        30.34S
GOLDN TRIANGLE FAIR      43  36  76 N7        30.29S
STARKVILLE     FAIR      43  36  75 CALM      30.30S
TUPELO         FAIR      46  32  58 N10       30.32R
6HR MIN TEMP:  45; 6HR MAX TEMP:  55;

$$

MSZ040-058-200700-
CENTRAL MISSISSIPPI

CITY           SKY/WX    TMP DP  RH WIND       PRES   REMARKS
JACKSON INTL   FAIR      49  38  65 N9        30.26S
6HR MIN TEMP:  48; 6HR MAX TEMP:  58;

JACKSON HAWKNS FAIR      48  37  65 N3        30.28S
6HR MIN TEMP:  47; 6HR MAX TEMP:  58;

MADISON        FAIR      45  36  70 CALM      30.27S
MERIDIAN KEY   FAIR      48  36  63 N8        30.26R
6HR MIN TEMP:  48; 6HR MAX TEMP:  62;

MERIDIAN NAS   FAIR      48  36  63 N6        30.26S
6HR MIN TEMP:  48; 6HR MAX TEMP:  60;

RAYMOND        FAIR      45  37  76 CALM      30.28S
VICKSBURG VKS  CLEAR     50  34  53 NE9       30.29F
$$

MSZ059>079-200700-
SOUTH MISSISSIPPI

CITY           SKY/WX    TMP DP  RH WIND       PRES   REMARKS
COLUMBIA       FAIR      48  41  76 CALM      30.28S
HATTIESBURG    FAIR      52  43  71 N5        30.24S
6HR MIN TEMP:  51; 6HR MAX TEMP:  66;

LAUREL         FAIR      48  40  75 N5        30.25S
MCCOMB         FAIR      51  37  58 N9        30.24R
6HR MIN TEMP:  51; 6HR MAX TEMP:  64;

NATCHEZ        FAIR      47  38  71 NE7       30.28S
6HR MIN TEMP:  47; 6HR MAX TEMP:  60;

PINE BELT      FAIR      47  42  83 N6        30.24F
6HR MIN TEMP:  47; 6HR MAX TEMP:  63; 6HR PCP: TRACE;

$$

MSZ080>082-200700-
COASTAL MISSISSIPPI

CITY           SKY/WX    TMP DP  RH WIND       PRES   REMARKS
BILOXI         FAIR      57  43  59 N9        30.19R
6HR MIN TEMP:  57; 6HR MAX TEMP:  71; 6HR PCP: TRACE;

PASCAGOULA     FAIR      56  39  53 N9        30.19S
6HR MIN TEMP:  56; 6HR MAX TEMP:  70;

GULFPORT       FAIR      56  44  64 N8        30.20R
6HR MIN TEMP:  56; 6HR MAX TEMP:  72;

$$

LAZ007>009-015>016-023>026-200700-
NORTHEAST LOUISIANA

CITY           SKY/WX    TMP DP  RH WIND       PRES   REMARKS
BASTROP        FAIR      42  39  86 CALM      30.32S
TALLULAH/VBURG FAIR      50  37  61 N12       30.30S
6HR MIN TEMP:  49; 6HR MAX TEMP:  57;

VIDALIA        FAIR      52  37  57 N7        30.27S
$$




USA.gov is the U.S. government's official web portal to all federal, state and local government web resources and services.